Wind_Speed
7 7 8 8 8 8 7 7 7 7 7 7 7 6 6 5 5 4 4 4 4 3 3 3 4 4 4 5 5 5 5 5 5 6 6 6 8 9 8 9 8 7 7
8 8 8 8 8 8 8 8 8 7 8 8 8 7 7 6 6 5 5 4 4 4 4 4 4 5 5 5 5 6 6 6 5 6 6 6 7 8 9 9 8 8 7
8 9 9 9 8 8 7 8 7 8 8 8 8 7 7 7 6 6 6 6 5 5 5 5 5 5 5 5 6 6 6 7 7 6 6 6 7 8 8 9 9 8 7
9 9 8 9 9 8 8 8 8 8 8 8 9 8 7 7 7 7 7 7 7 6 6 6 6 6 6 6 6 6 7 8 8 7 7 8 7 8 8 9 9 8 8
9 9 9 9 9 9 8 8 8 8 9 9 9 9 9 9 8 8 8 8 8 8 7 7 7 7 7 7 7 7 8 8 8 7 7 8 8 9 8 8 8 8 8
10 9 9 8 9 9 9 8 8 8 9 10 9 9 8 8 8 8 8 8 9 9 8 8 8 8 8 8 8 8 9 8 9 9 8 8 9 9 9 9 9 9 9
10 9 9 9 9 9 9 9 9 9 10 10 9 9 9 9 9 9 9 8 9 9 9 9 8 8 8 8 9 9 10 10 9 9 8 9 10 10 9 10 10 10 10
11 10 10 10 9 10 10 10 10 10 10 10 10 9 9 9 10 10 9 9 9 9 8 8 9 9 9 9 9 10 10 10 9 10 10 10 10 10 11 10 10 10 10
11 10 10 10 10 10 11 11 11 11 11 10 10 10 10 10 10 10 10 10 9 10 10 10 10 10 10 10 10 10 10 10 10 10 11 11 11 11 11 11 11 10 10
11 11 11 11 11 11 11 11 11 11 11 11 11 11 11 11 10 10 11 10 10 11 11 11 11 11 11 11 11 11 10 10 10 10 10 11 11 11 11 11 11 11 10
11 11 12 13 12 13 12 12 12 12 12 11 11 11 11 11 10 11 11 11 11 12 12 12 12 12 12 12 12 12 12 11 11 11 12 11 11 11 11 12 12 11 11
12 12 12 13 13 13 12 12 12 12 12 12 12 12 12 11 11 11 11 11 12 13 13 13 13 13 13 12 13 13 13 13 12 13 12 12 12 12 12 12 12 12 12
12 12 13 13 14 13 12 13 13 13 12 12 13 13 13 13 12 12 12 12 13 14 14 14 14 14 14 14 14 14 14 14 13 13 13 12 13 12 12 12 13 13 12
13 13 14 14 13 13 12 13 13 13 13 13 13 13 14 13 14 14 13 14 14 14 14 13 14 14 15 15 15 15 15 15 15 15 15 14 14 13 14 14 13 13 13
14 14 15 14 14 14 13 13 13 13 13 13 13 14 14 14 14 15 15 14 15 14 14 14 14 14 15 15 15 15 15 16 15 15 15 15 15 15 15 15 15 15 15
16 15 15 15 15 15 14 14 14 14 14 13 14 14 14 14 14 15 15 15 15 15 15 15 15 14 15 15 15 16 16 16 17 17 16 16 17 16 16 16 16 16 16
17 16 15 15 15 15 15 15 15 15 14 14 14 14 15 15 14 14 14 15 16 16 16 15 15 16 15 15 16 16 17 17 17 17 17 17 17 17 17 17 17 17 18
17 16 15 15 16 16 16 15 16 16 14 14 14 15 15 15 15 15 16 17 17 17 16 16 16 16 16 16 17 17 17 18 18 18 18 18 19 19 18 19 19 18 18
17 16 16 16 16 17 16 16 16 16 14 14 15 15 15 15 16 16 17 18 17 17 17 17 17 17 18 18 18 18 18 19 19 19 19 20 20 20 20 21 21 20 20
16 16 16 16 16 16 17 16 17 16 15 14 15 16 16 16 16 17 17 18 17 17 18 18 18 17 18 19 18 18 19 19 20 20 20 20 21 22 22 22 21 21 21
16 17 16 16 16 16 17 17 17 17 15 15 15 16 16 16 17 17 18 18 19 19 19 19 19 19 19 20 20 20 20 20 20 20 21 21 22 23 23 23 23 23 23
17 17 16 16 16 17 17 17 17 17 16 16 16 16 17 17 18 18 18 19 19 20 20 19 20 20 20 21 21 22 22 21 21 22 23 23 23 23 24 24 24 25 25
17 16 16 17 17 17 17 17 17 17 16 17 17 17 18 18 18 19 19 20 19 19 20 19 20 20 20 20 21 22 22 21 21 23 24 24 23 24 24 25 25 26 26
17 18 18 18 18 18 18 18 18 17 17 17 18 18 19 19 18 19 19 19 19 19 18 19 19 20 20 20 21 22 22 22 22 23 23 24 24 25 25 26 27 27 28
17 19 19 18 18 19 19 19 19 18 18 18 17 17 18 18 18 19 20 20 20 20 20 19 20 20 21 22 22 22 22 22 22 23 24 25 26 27 27 27 27 27 28
18 18 19 19 19 20 20 20 20 19 19 18 18 18 18 19 19 19 20 21 22 21 21 21 22 22 22 23 23 23 23 24 24 24 24 25 26 27 28 28 28 28 27
Wind_Direction
347 345 340 334 333 332 328 322 318 315 311 307 301 299 298 293 292 294 292 283 268 268 262 254 252 248 243 240 237 236 234 235 225 214 215 216 214 215 217 214 212 205 201
341 336 328 325 323 324 321 315 309 305 306 303 300 298 296 288 286 286 285 279 271 270 264 258 258 255 247 244 242 241 243 241 235 229 225 222 214 217 218 215 212 212 211
337 331 323 320 318 316 313 309 307 304 304 302 299 297 291 283 280 281 277 275 276 273 269 265 259 258 254 250 250 247 243 237 237 238 231 225 224 223 218 217 219 220 222
331 327 321 318 317 312 311 308 305 304 303 300 297 291 285 279 276 278 272 271 275 278 273 265 264 262 257 253 255 254 246 244 242 242 243 228 227 224 223 223 222 223 226
330 328 326 321 315 311 309 307 305 304 301 299 298 293 285 280 275 274 273 274 274 277 275 267 264 263 260 256 258 255 248 241 240 243 245 234 232 230 231 227 225 224 227
329 325 324 322 320 315 312 308 304 299 297 296 294 290 288 283 275 274 274 277 273 272 273 270 264 261 259 256 257 255 249 243 235 240 243 238 237 232 231 234 233 230 234
326 323 321 321 319 315 312 308 303 299 296 295 290 284 287 286 282 279 276 279 272 269 270 267 262 260 256 256 254 253 249 248 246 243 242 237 236 234 233 237 236 235 235
322 319 319 318 317 313 308 305 303 299 298 293 287 286 285 282 280 277 277 277 272 272 270 267 262 258 255 256 256 254 251 251 251 246 244 242 242 240 235 236 241 238 234
321 322 319 316 316 312 309 308 305 300 296 291 287 286 286 281 279 277 276 276 275 272 270 269 265 261 259 257 259 258 255 252 250 246 245 247 245 241 236 236 239 240 237
321 321 323 321 316 310 307 305 302 299 293 289 288 285 285 281 278 279 277 273 272 272 269 267 265 263 261 259 260 261 256 252 250 251 247 246 246 244 240 239 238 239 238
319 318 321 321 319 312 304 301 299 297 294 290 289 288 287 282 278 279 277 275 273 272 269 267 264 263 262 262 261 260 259 253 245 246 246 245 247 247 244 242 239 238 240
317 317 316 316 317 315 307 301 300 299 293 287 286 287 285 283 278 278 278 277 278 276 271 266 265 262 262 263 261 260 259 257 249 248 249 249 247 249 246 242 241 241 243
313 315 314 312 312 312 309 303 299 298 294 288 286 285 286 286 284 282 280 279 277 276 272 265 264 263 263 263 261 258 256 257 254 253 250 250 250 250 246 242 240 242 245
310 314 312 312 309 308 307 305 300 298 295 293 289 289 287 288 285 285 283 279 277 274 270 267 266 266 263 263 261 257 256 257 257 257 253 251 252 250 245 244 243 245 249
306 306 308 310 307 306 306 306 301 298 296 295 290 288 286 287 287 286 284 280 277 275 271 267 268 266 265 262 261 258 257 257 257 257 253 252 252 253 250 250 251 252 252
304 303 304 306 305 305 303 302 301 298 293 292 289 288 287 287 285 283 282 282 281 277 273 269 269 270 267 264 261 258 256 256 256 254 253 252 251 253 253 252 253 254 255
304 305 306 304 301 302 302 300 298 296 292 290 289 287 286 286 286 285 282 281 281 278 274 275 271 268 266 265 262 259 258 258 257 255 255 254 253 253 254 253 252 253 255
302 305 306 302 301 302 302 300 299 297 292 289 288 289 286 285 285 286 285 283 281 278 276 276 276 268 266 264 261 260 259 260 258 259 257 257 255 253 253 253 252 253 255
301 303 303 302 303 303 302 299 297 294 290 288 287 286 285 284 284 285 286 283 281 277 276 277 277 270 266 263 262 261 262 264 260 259 259 257 255 253 253 252 252 254 256
302 302 301 302 303 303 303 303 299 296 290 288 287 286 285 284 284 283 284 283 278 277 278 278 277 272 267 265 264 262 263 264 263 260 259 257 256 254 254 254 253 254 256
301 302 303 305 305 303 304 304 301 297 292 289 287 285 285 283 282 282 283 284 278 277 278 277 277 272 269 266 264 262 262 263 263 261 261 260 257 253 253 255 255 257 257
302 300 302 305 304 303 303 304 303 300 294 288 286 284 283 283 282 281 282 282 279 278 278 276 276 273 271 267 265 264 264 263 264 263 261 259 256 254 254 255 257 258 260
300 300 301 300 301 302 301 303 302 299 296 290 288 286 284 283 282 280 281 280 279 279 279 277 274 273 272 271 268 266 264 263 264 265 263 259 255 255 255 257 258 260 260
298 298 296 297 299 301 300 300 301 300 297 294 292 287 285 283 282 281 281 279 279 281 279 277 277 273 271 272 270 267 265 265 266 264 263 261 259 259 258 258 260 259 259
295 294 295 296 299 300 300 300 300 299 298 297 295 292 288 286 283 281 281 280 279 279 281 279 277 274 273 271 270 268 268 269 269 267 265 264 263 263 261 259 259 258 259
291 294 292 295 298 300 298 298 299 298 298 297 296 295 291 288 287 286 281 282 279 278 277 278 278 275 273 272 270 270 270 271 272 270 267 266 267 265 262 260 260 259 259
Height
5902 5900 5899 5898 5898 5897 5896 5896 5895 5894 5893 5893 5892 5891 5891 5890 5890 5889 5889 5889 5888 5888 5888 5888 5888 5887 5887 5887 5887 5887 5887 5887 5888 5888 5888 5888 5889 5889 5889 5890 5890 5891 5891
5901 5900 5899 5898 5897 5896 5895 5895 5894 5893 5892 5892 5891 5890 5890 5889 5889 5888 5888 5888 5888 5887 5887 5887 5887 5887 5886 5886 5886 5886 5886 5886 5887 5887 5887 5887 5888 5888 5888 5889 5890 5890 5891
5900 5899 5898 5897 5896 5895 5894 5894 5893 5892 5891 5890 5890 5889 5889 5888 5888 5888 5887 5887 5887 5887 5886 5886 5886 5886 5885 5885 5885 5885 5885 5885 5885 5886 5886 5887 5887 5887 5888 5888 5889 5890 5890
5899 5898 5897 5896 5895 5894 5893 5892 5892 5891 5890 5889 5889 5888 5887 5887 5887 5886 5886 5886 5886 5885 5885 5885 5885 5884 5884 5884 5884 5884 5884 5884 5885 5885 5885 5886 5886 5887 5887 5888 5888 5889 5889
5898 5897 5896 5894 5893 5893 5892 5891 5890 5889 5889 5888 5887 5887 5886 5886 5885 5885 5885 5884 5884 5884 5884 5883 5883 5883 5883 5883 5883 5883 5883 5883 5883 5884 5884 5885 5885 5886 5886 5887 5887 5888 5889
5896 5895 5894 5893 5892 5891 5890 5889 5889 5888 5887 5886 5885 5885 5884 5884 5884 5883 5883 5882 5882 5882 5882 5881 5881 5881 5881 5881 5881 5881 5881 5881 5882 5883 5883 5883 5884 5885 5885 5886 5886 5887 5888
5895 5894 5893 5892 5890 5889 5888 5888 5887 5886 5885 5884 5883 5883 5883 5882 5882 5882 5881 5880 5880 5880 5880 5880 5879 5879 5879 5879 5880 5880 5880 5880 5881 5881 5882 5882 5883 5883 5884 5884 5885 5885 5886
5894 5892 5891 5890 5889 5888 5887 5886 5885 5884 5883 5882 5882 5881 5881 5880 5880 5880 5879 5879 5878 5878 5878 5878 5878 5878 5877 5878 5878 5878 5878 5879 5880 5880 5880 5880 5881 5881 5882 5882 5883 5884 5884
5892 5890 5890 5889 5887 5886 5885 5884 5883 5882 5881 5880 5879 5879 5878 5878 5878 5877 5877 5877 5876 5876 5876 5876 5876 5876 5876 5876 5876 5876 5877 5877 5878 5878 5879 5879 5879 5879 5880 5881 5881 5881 5882
5890 5889 5888 5887 5886 5884 5883 5881 5880 5879 5878 5878 5877 5877 5876 5876 5875 5875 5874 5874 5874 5874 5874 5873 5873 5874 5874 5874 5874 5874 5874 5875 5876 5876 5877 5877 5877 5877 5878 5878 5879 5879 5880
5888 5887 5886 5885 5883 5882 5881 5879 5878 5877 5876 5875 5875 5874 5874 5873 5873 5872 5872 5872 5871 5871 5871 5871 5871 5871 5871 5871 5872 5872 5872 5873 5873 5873 5874 5874 5875 5875 5875 5876 5877 5877 5878
5885 5884 5884 5882 5881 5879 5878 5876 5875 5874 5873 5872 5872 5871 5871 5870 5870 5869 5869 5869 5869 5868 5868 5868 5868 5868 5868 5869 5869 5869 5869 5870 5871 5871 5871 5872 5872 5872 5873 5874 5874 5875 5876
5883 5882 5881 5880 5878 5876 5875 5873 5872 5871 5870 5870 5869 5868 5868 5867 5867 5866 5866 5866 5865 5865 5865 5864 5865 5865 5865 5865 5866 5866 5866 5867 5868 5868 5868 5869 5869 5869 5870 5871 5872 5872 5873
5880 5879 5878 5877 5875 5874 5872 5870 5869 5868 5867 5867 5866 5865 5865 5864 5864 5863 5862 5862 5862 5861 5861 5861 5861 5861 5861 5862 5862 5863 5863 5864 5864 5865 5865 5866 5866 5867 5867 5868 5869 5869 5870
5877 5876 5875 5873 5872 5870 5869 5868 5866 5865 5864 5863 5863 5862 5862 5861 5860 5859 5858 5858 5858 5857 5857 5857 5857 5857 5857 5858 5858 5859 5859 5860 5861 5861 5862 5862 5863 5864 5864 5865 5865 5866 5866
5874 5873 5871 5870 5869 5867 5866 5865 5863 5862 5861 5860 5860 5859 5858 5857 5856 5856 5855 5854 5854 5853 5853 5853 5853 5853 5854 5854 5854 5855 5855 5856 5856 5857 5857 5858 5859 5860 5861 5861 5862 5862 5863
5870 5869 5868 5866 5865 5864 5862 5861 5860 5858 5858 5857 5856 5855 5854 5854 5853 5852 5851 5850 5850 5849 5849 5849 5849 5849 5850 5850 5850 5851 5851 5852 5852 5852 5853 5854 5855 5856 5856 5857 5857 5858 5859
5866 5865 5864 5863 5861 5860 5859 5857 5856 5854 5853 5853 5852 5852 5850 5850 5849 5848 5847 5847 5846 5845 5845 5845 5845 5845 5845 5845 5846 5846 5847 5847 5847 5848 5849 5849 5850 5851 5852 5852 5853 5853 5854
5863 5861 5860 5859 5858 5856 5854 5853 5852 5851 5850 5849 5848 5847 5847 5846 5845 5844 5843 5842 5841 5841 5841 5840 5840 5840 5840 5841 5841 5842 5842 5843 5843 5843 5844 5845 5845 5846 5846 5847 5848 5848 5849
5859 5858 5857 5855 5854 5852 5851 5849 5848 5847 5845 5844 5843 5843 5842 5841 5841 5840 5839 5838 5837 5837 5836 5836 5835 5835 5835 5835 5836 5836 5837 5837 5838 5838 5839 5840 5840 5841 5841 5842 5843 5843 5844
5856 5854 5853 5851 5850 5848 5847 5845 5844 5842 5841 5840 5839 5838 5837 5836 5836 5835 5834 5833 5832 5832 5831 5830 5830 5830 5830 5830 5830 5831 5831 5832 5832 5833 5833 5834 5834 5835 5836 5837 5837 5838 5839
5852 5851 5849 5848 5846 5845 5843 5842 5840 5838 5837 5836 5835 5834 5833 5832 5831 5830 5829 5828 5826 5825 5825 5824 5824 5824 5824 5824 5824 5824 5825 5826 5826 5827 5827 5827 5828 5828 5830 5831 5831 5832 5833
5849 5847 5846 5844 5843 5841 5840 5838 5836 5834 5833 5832 5830 5829 5828 5827 5826 5825 5824 5822 5821 5820 5819 5818 5818 5818 5818 5818 5818 5819 5819 5820 5820 5820 5821 5821 5822 5823 5823 5824 5825 5826 5826
5845 5843 5842 5840 5839 5837 5836 5834 5832 5830 5829 5827 5825 5824 5823 5821 5820 5819 5818 5817 5816 5815 5814 5813 5813 5812 5812 5812 5812 5812 5813 5813 5814 5814 5814 5815 5815 5816 5817 5817 5818 5818 5818
5840 5839 5837 5835 5834 5832 5831 5829 5827 5826 5824 5822 5821 5819 5818 5816 5815 5814 5812 5811 5810 5809 5808 5807 5807 5806 5806 5805 5805 5805 5806 5806 5807 5808 5808 5809 5808 5809 5809 5810 5810 5811 5811
5835 5834 5832 5831 5829 5828 5826 5824 5822 5821 5819 5817 5816 5814 5813 5811 5809 5808 5806 5805 5804 5803 5802 5801 5800 5799 5799 5799 5799 5799 5799 5799 5800 5800 5801 5801 5801 5801 5801 5802 5803 5803 5803